map of CDR home
Great Circle Mapper logo
CDR - Airport
Location
City:  Chadron, Nebraska, United States
Name:Chadron Municipal Airport
ICAO / IATA:KCDR / CDR
FAA:CDR

Details
Type:Airport (Part 139 Class III)
Use:Public/Civil
Latitude:4250'15"N (42.837558)
Longitude:10305'43"W (-103.095401)
Datum:WGS 1984
Elevation:3297 ft (1005 m)
Runways:2
Longest:5998 × 100 ft (1828 × 30.5 m), paved

Time
Time Zone:UTC-7 (DST-6)
Local Time:

Weather
METAR:KCDR 311526Z AUTO 16011KT 9SM SCT011 02/M01 A3037 RMK AO2 T00221006
TAF:KCDR 311239Z 3113/0112 13010KT P6SM BKN015
FM311700 17022G30KT P6SM SCT020
FM312100 17022G31KT P6SM SCT250
FM010000 17020G28KT P6SM SCT200

Related Locations
Nearby:
Farthest:RRG: 10658 mi / 17152 km
Plaine Corail, Rodrigues Island, MU

Find:

   beyond  
but within

Other Information
Maps:
NOTAMs:
Links:
Sources:

  
flag of United States
flag of Nebraska
  

Sectional Chart

Flight Planning
at skyvector.com

Satellite Image

Google Maps Satellite View

 

Copyright © 2004-2014 Karl L. Swartz. All rights reserved.
The Great Circle Mapper name and logo are trademarks of the Great Circle Mapper.
All other trademarks mentioned herein belong to their respective owners.
Please see credits for attibutions and further copyright information.

  Follow gcmap on Facebook Follow gcmap on Twitter

hCard Microformat

Geo Microformat